This is the latest recevied weather packets stored in our database for station/object KB4MOX. If no packets are shown the sender has not sent any weather packets the latest 10 day(s).
| Time | Temp. | Humidity | Pressure | Rain* | Wind** | Luminosity | Snow |
|---|---|---|---|---|---|---|---|
| 1787941888 | 27.78° C | 78% | 1017.5 hPa | 0 mm | - | 106 W/m² | - |
| 1787941587 | 28.33° C | 78% | 1017.5 hPa | 0 mm | - | 103 W/m² | - |
| 1787941281 | 28.33° C | 78% | 1017.4 hPa | 0 mm | - | 103 W/m² | - |
| 1787940981 | 28.33° C | 76% | 1017.6 hPa | 0 mm | - | 133 W/m² | - |
| 1787940680 | 28.33° C | 77% | 1017.7 hPa | 0 mm | - | 136 W/m² | - |
| 1787940379 | 28.89° C | 78% | 1017.7 hPa | 0 mm | - | 139 W/m² | - |
| 1787940078 | 28.89° C | 77% | 1017.9 hPa | 0 mm | - | 183 W/m² | - |
| 1787939773 | 28.33° C | 78% | 1017.8 hPa | 0 mm | - | 205 W/m² | - |
| 1787939472 | 28.33° C | 77% | 1017.8 hPa | 0 mm | - | 237 W/m² | - |
| 1787939168 | 28.33° C | 77% | 1017.8 hPa | 0 mm | - | 246 W/m² | - |
| 1787938862 | 28.33° C | 78% | 1017.9 hPa | 0 mm | - | 289 W/m² | - |
| 1787938561 | 28.33° C | 76% | 1018.2 hPa | 0 mm | - | 286 W/m² | - |
| 1787938257 | 28.33° C | 77% | 1018.3 hPa | 0 mm | - | 271 W/m² | - |
| 1787937957 | 28.33° C | 77% | 1018.4 hPa | 0 mm | - | 310 W/m² | - |
| 1787937653 | 27.78° C | 79% | 1018.4 hPa | 0 mm | - | 293 W/m² | - |
| 1787937349 | 27.78° C | 79% | 1018.3 hPa | 0 mm | - | 269 W/m² | - |
| 1787937045 | 27.78° C | 79% | 1018.3 hPa | 0 mm | - | 257 W/m² | - |
| 1787936744 | 27.78° C | 79% | 1018.4 hPa | 0 mm | - | 253 W/m² | - |
| 1787936439 | 27.78° C | 81% | 1018.3 hPa | 0 mm | - | 278 W/m² | - |
| 1787936138 | 27.22° C | 82% | 1018.4 hPa | 0 mm | - | 301 W/m² | - |
| 1787935834 | 27.22° C | 82% | 1018.2 hPa | 0 mm | - | 336 W/m² | - |
| 1787935530 | 27.22° C | 83% | 1018.2 hPa | 0 mm | - | 382 W/m² | - |
| 1787935226 | 27.78° C | 81% | 1018.6 hPa | 0 mm | - | 404 W/m² | - |
| 1787934921 | 27.22° C | 82% | 1018.5 hPa | 0 mm | - | 394 W/m² | - |
| 1787934616 | 27.22° C | 84% | 1018.4 hPa | 0 mm | - | 542 W/m² | - |
* Rain latest hour (hover to see other rain measurements)
** Current wind speed in m/s (hover to see current wind gust speed)